When you browse on this site, cookies collect data to enhance your experience and personalize the content and advertising you see.
Visit our Privacy Policy to learn more. By continuing to use the site, you agree to this use of cookies and data.

Previsão horária em Lampeter

Hoje, 8 Julho, Quarta-feira

Tempo Temperatura Precipitação Vento Pressão Humidade
00:00 +11°C° 0 mm 1 m/s 756 mmHg 92%
01:00 +10°C° 0.1 mm 2 m/s 756 mmHg 93%
02:00 +10°C° 0.1 mm 2 m/s 756 mmHg 93%
03:00 +10°C° 0.1 mm 2 m/s 756 mmHg 94%
04:00 +10°C° 0 mm 2 m/s 756 mmHg 93%
05:00 +10°C° 0 mm 2 m/s 756 mmHg 92%
06:00 +12°C° 0 mm 2 m/s 756 mmHg 92%
07:00 +12°C° 0.1 mm 2 m/s 756 mmHg 89%
08:00 +12°C° 0.1 mm 3 m/s 756 mmHg 86%
09:00 +13°C° 0.1 mm 3 m/s 756 mmHg 83%
10:00 +13°C° 0.2 mm 3 m/s 756 mmHg 82%
11:00 +13°C° 0.2 mm 3 m/s 756 mmHg 81%
12:00 +14°C° 0.2 mm 4 m/s 756 mmHg 80%
13:00 +14°C° 0.2 mm 4 m/s 756 mmHg 80%
14:00 +14°C° 0.2 mm 4 m/s 756 mmHg 81%
15:00 +14°C° 0.2 mm 4 m/s 756 mmHg 81%
16:00 +14°C° 0.2 mm 4 m/s 755 mmHg 83%
17:00 +14°C° 0.2 mm 4 m/s 755 mmHg 84%
18:00 +13°C° 0.2 mm 4 m/s 755 mmHg 86%
19:00 +13°C° 0.2 mm 3 m/s 755 mmHg 88%
20:00 +12°C° 0.2 mm 3 m/s 755 mmHg 90%
21:00 +12°C° 0.2 mm 3 m/s 755 mmHg 92%
22:00 +12°C° 0.5 mm 2 m/s 755 mmHg 93%
23:00 +12°C° 0.5 mm 2 m/s 755 mmHg 94%

Amanhã, 9 Julho, Quinta-feira

Tempo Temperatura Precipitação Vento Pressão Humidade
00:00 +12°C° 0.5 mm 2 m/s 754 mmHg 95%
01:00 +12°C° 0.4 mm 2 m/s 754 mmHg 95%
02:00 +12°C° 0.4 mm 2 m/s 754 mmHg 95%
03:00 +10°C° 0.4 mm 2 m/s 754 mmHg 95%
04:00 +12°C° 0.1 mm 1 m/s 754 mmHg 95%
05:00 +12°C° 0.1 mm 1 m/s 754 mmHg 95%
06:00 +12°C° 0.1 mm 1 m/s 754 mmHg 94%
07:00 +12°C° 0 mm 1 m/s 754 mmHg 92%
08:00 +13°C° 0 mm 1 m/s 755 mmHg 89%
09:00 +14°C° 0 mm 1 m/s 755 mmHg 86%
10:00 +15°C° 0.1 mm 1 m/s 755 mmHg 81%
11:00 +16°C° 0.1 mm 2 m/s 755 mmHg 76%
12:00 +17°C° 0.1 mm 2 m/s 755 mmHg 71%
13:00 +17°C° 0.5 mm 2 m/s 755 mmHg 74%
14:00 +17°C° 0.5 mm 2 m/s 755 mmHg 76%
15:00 +17°C° 0.5 mm 3 m/s 755 mmHg 79%
16:00 +16°C° 1 mm 3 m/s 754 mmHg 81%
17:00 +16°C° 1 mm 3 m/s 754 mmHg 84%
18:00 +14°C° 1 mm 3 m/s 754 mmHg 86%
19:00 +13°C° 0.7 mm 3 m/s 754 mmHg 88%
20:00 +12°C° 0.7 mm 3 m/s 754 mmHg 91%
21:00 +11°C° 0.7 mm 3 m/s 754 mmHg 93%
22:00 +11°C° 0.1 mm 3 m/s 754 mmHg 93%
23:00 +10°C° 0.1 mm 3 m/s 754 mmHg 93%

Depois de amanhã, 10 Julho, Sexta-feira

Tempo Temperatura Precipitação Vento Pressão Humidade
00:00 +10°C° 0.1 mm 3 m/s 754 mmHg 93%
01:00 +10°C° 0 mm 3 m/s 754 mmHg 93%
02:00 +9°C° 0 mm 3 m/s 754 mmHg 93%
03:00 +9°C° 0 mm 3 m/s 754 mmHg 93%
04:00 +10°C° 0.2 mm 3 m/s 754 mmHg 93%
05:00 +10°C° 0.2 mm 2 m/s 754 mmHg 93%
06:00 +10°C° 0.2 mm 2 m/s 755 mmHg 92%
07:00 +12°C° 0.2 mm 2 m/s 755 mmHg 86%
08:00 +13°C° 0.2 mm 2 m/s 755 mmHg 80%
09:00 +14°C° 0.2 mm 2 m/s 756 mmHg 74%
10:00 +15°C° 0.1 mm 2 m/s 756 mmHg 69%
11:00 +16°C° 0.1 mm 2 m/s 756 mmHg 65%
12:00 +16°C° 0.1 mm 1 m/s 757 mmHg 61%
13:00 +16°C° 0.3 mm 2 m/s 757 mmHg 63%
14:00 +17°C° 0.3 mm 3 m/s 757 mmHg 65%
15:00 +17°C° 0.3 mm 3 m/s 757 mmHg 67%
16:00 +16°C° 0.3 mm 3 m/s 757 mmHg 70%
17:00 +15°C° 0.3 mm 4 m/s 758 mmHg 72%
18:00 +15°C° 0.3 mm 4 m/s 758 mmHg 74%
19:00 +13°C° 0.1 mm 3 m/s 758 mmHg 78%
20:00 +12°C° 0.1 mm 3 m/s 758 mmHg 81%
21:00 +10°C° 0.1 mm 3 m/s 759 mmHg 85%
22:00 +10°C° 0 mm 3 m/s 759 mmHg 86%
23:00 +9°C° 0 mm 3 m/s 759 mmHg 87%

11 Julho, Sábado

Tempo Temperatura Precipitação Vento Pressão Humidade
00:00 +8°C° 0 mm 3 m/s 760 mmHg 88%
01:00 +8°C° 0 mm 3 m/s 760 mmHg 89%
02:00 +8°C° 0 mm 3 m/s 760 mmHg 90%
03:00 +7°C° 0 mm 3 m/s 760 mmHg 91%
04:00 +8°C° 0 mm 3 m/s 760 mmHg 89%
05:00 +9°C° 0 mm 3 m/s 761 mmHg 88%
06:00 +9°C° 0 mm 3 m/s 761 mmHg 87%
07:00 +11°C° 0 mm 3 m/s 761 mmHg 79%
08:00 +12°C° 0 mm 3 m/s 762 mmHg 72%
09:00 +14°C° 0 mm 4 m/s 762 mmHg 65%
10:00 +15°C° 0 mm 4 m/s 762 mmHg 65%
11:00 +15°C° 0 mm 4 m/s 762 mmHg 64%
12:00 +17°C° 0 mm 4 m/s 762 mmHg 64%
13:00 +17°C° 0.1 mm 4 m/s 762 mmHg 64%
14:00 +17°C° 0.1 mm 5 m/s 762 mmHg 63%
15:00 +17°C° 0.1 mm 5 m/s 762 mmHg 63%
16:00 +16°C° 0 mm 5 m/s 762 mmHg 65%
17:00 +16°C° 0 mm 5 m/s 762 mmHg 67%
18:00 +15°C° 0 mm 5 m/s 763 mmHg 69%
19:00 +14°C° 0 mm 5 m/s 763 mmHg 73%
20:00 +12°C° 0 mm 4 m/s 763 mmHg 77%
21:00 +11°C° 0 mm 4 m/s 763 mmHg 82%
22:00 +10°C° 0 mm 3 m/s 763 mmHg 83%
23:00 +9°C° 0 mm 3 m/s 763 mmHg 84%

12 Julho, Domingo

Tempo Temperatura Precipitação Vento Pressão Humidade
00:00 +9°C° 0 mm 3 m/s 763 mmHg 85%
01:00 +8°C° 0 mm 3 m/s 763 mmHg 87%
02:00 +8°C° 0 mm 3 m/s 763 mmHg 89%
03:00 +8°C° 0 mm 3 m/s 763 mmHg 91%
04:00 +8°C° 0 mm 3 m/s 763 mmHg 89%
05:00 +9°C° 0 mm 3 m/s 763 mmHg 86%
06:00 +10°C° 0 mm 4 m/s 763 mmHg 84%
07:00 +11°C° 0 mm 4 m/s 763 mmHg 80%
08:00 +13°C° 0 mm 4 m/s 763 mmHg 76%
09:00 +14°C° 0 mm 5 m/s 763 mmHg 72%
10:00 +15°C° 0 mm 5 m/s 762 mmHg 71%
11:00 +16°C° 0 mm 5 m/s 762 mmHg 70%
12:00 +16°C° 0 mm 5 m/s 762 mmHg 68%
13:00 +17°C° 0 mm 4 m/s 762 mmHg 72%
14:00 +15°C° 0 mm 4 m/s 762 mmHg 76%
15:00 +14°C° 0 mm 4 m/s 762 mmHg 80%
16:00 +14°C° 0 mm 4 m/s 761 mmHg 82%
17:00 +14°C° 0 mm 3 m/s 761 mmHg 84%
18:00 +13°C° 0 mm 3 m/s 761 mmHg 86%
19:00 +13°C° 0 mm 3 m/s 761 mmHg 85%
20:00 +13°C° 0 mm 3 m/s 761 mmHg 84%
21:00 +13°C° 0 mm 4 m/s 760 mmHg 84%
22:00 +12°C° 0 mm 4 m/s 760 mmHg 85%
23:00 +12°C° 0 mm 4 m/s 760 mmHg 86%

13 Julho, Segunda-feira

Tempo Temperatura Precipitação Vento Pressão Humidade
00:00 +12°C° 0 mm 4 m/s 759 mmHg 87%
01:00 +12°C° 0 mm 4 m/s 759 mmHg 88%
02:00 +12°C° 0 mm 4 m/s 758 mmHg 89%
03:00 +12°C° 0 mm 4 m/s 758 mmHg 90%
04:00 +12°C° 0 mm 4 m/s 758 mmHg 90%
05:00 +12°C° 0 mm 4 m/s 757 mmHg 90%
06:00 +12°C° 0 mm 4 m/s 757 mmHg 90%
07:00 +13°C° 0 mm 4 m/s 757 mmHg 90%
08:00 +13°C° 0 mm 4 m/s 757 mmHg 90%
09:00 +13°C° 0 mm 4 m/s 757 mmHg 90%
10:00 +14°C° 0 mm 4 m/s 757 mmHg 88%
11:00 +14°C° 0 mm 4 m/s 756 mmHg 87%
12:00 +15°C° 0 mm 4 m/s 756 mmHg 86%
13:00 +14°C° 0.1 mm 4 m/s 756 mmHg 87%
14:00 +14°C° 0.1 mm 4 m/s 755 mmHg 88%
15:00 +14°C° 0.1 mm 3 m/s 755 mmHg 89%
16:00 +13°C° 0 mm 3 m/s 755 mmHg 90%
17:00 +13°C° 0 mm 3 m/s 754 mmHg 90%
18:00 +13°C° 0 mm 3 m/s 754 mmHg 91%
19:00 +13°C° 0 mm 3 m/s 754 mmHg 92%
20:00 +12°C° 0 mm 3 m/s 754 mmHg 93%
21:00 +12°C° 0 mm 3 m/s 754 mmHg 94%
22:00 +12°C° 0 mm 3 m/s 754 mmHg 94%
23:00 +12°C° 0 mm 3 m/s 754 mmHg 93%
Mostrar mais